星链-35954(STARLINK-35954)

导读

STARLINK-35954是美国于2025年12月4日发射的星链卫星,星链是美国太空探索技术公司推出的低轨卫星互联网项目。该卫星加入了大规模星链星座网络,旨在为全球各地提供高速互联网接入服务,进一步拓展星链系统的覆盖范围与服务能力,推动全球卫星互联网组网建设进程。

基本信息
目录编号:
66885
目录名称:
STARLINK-35954
国际标识:
2025-283H
轨道中心:
EARTH
卫星名称:
星链-35954
卫星全名:
星链-35954(STARLINK-35954)
卫星状态:
在轨 (已飞行274 天)
发射日期:
2025-12-04 UTC
国别 :
美国 (US)
星等 :
--
轨道信息
数据来源 国际轨道数据
星历时间: 2026-09-02T16:11:42+0800
1天前
查看轨道信息
半长轴: 6840.845km
偏心率: 0.000129
轨道倾角: 53.160°
近地点辐角 103.802°
升交点赤经 280.567°
平近点角 256.313°
近地点: 461.825km
远地点: 463.591km
周期: 93.848分钟
每日圈数: 15.343984
详细信息
固有亮度:
5
最大亮度:
2.5
卫星平台:
Starlink V1.0
覆盖范围:
全球
运营商:
太空探索技术公司
运营商所在国:
美国
制造商(研发单位):
太空探索技术公司
制造商所在国:
美国
使用方式:
暂无
卫星简介
Starlink 计划是 SpaceX 推出的全球卫星互联网项目,通过发射低轨道卫星,为全球尤其是偏远地区提供高速、低延迟的互联网服务。自 2019 年起,Starlink 已部署数千颗卫星,旨在缩小全球数字鸿沟,推动互联网普及。该项目还为军事、航空等行业提供通信支持,带来广泛经济效益。
2D轨道图
3D轨道图
轨道高度分析图
轨道倾角分析图
轨道综合分析图
查看轨道综合分析图
交会数据列表
事件ID 空间交会对象 最接近时刻(TCA) 交会距离 交会风险概率(CRP) 交会风险指数(CRI) 操作
CDM_260905-091906-100606-688521
2026-09-05T
09:19:42+0000
0.295 km
中距离
3.04564E-4 高风险 0.85
CDM_260905-025406-564106-688521
2026-09-05T
02:54:24+0000
0.368 km
远距离
2.69533E-4 高风险 0.84
CDM_260904-012106-402606-688521
2026-09-04T
01:21:14+0000
1.053 km
极远距离
1.866736E-5 中风险 0.6
CDM_260905-035106-100606-688521
2026-09-05T
03:51:26+0000
0.926 km
远距离
1.507731E-5 中风险 0.59
CDM_260905-012006-564106-688521
2026-09-05T
01:20:37+0000
1.173 km
极远距离
9.836897E-6 低风险 0.55
CDM_260901-085305-846606-688522
UHETSAT (58466)
2026-09-01T
08:53:41+0000
1.548 km
极远距离
3.500108E-6 低风险 0.46
CDM_260905-042806-564106-688521
2026-09-05T
04:28:11+0000
1.896 km
极远距离
2.175501E-6 低风险 0.42
CDM_260902-133405-269806-688521
2026-09-02T
13:34:00+0000
2.470 km
极远距离
1.573304E-6 低风险 0.39
CDM_260901-105505-270606-688521
2026-09-01T
10:55:34+0000
2.552 km
极远距离
1.429114E-6 低风险 0.38
CDM_260904-234606-564106-688521
2026-09-04T
23:46:49+0000
2.672 km
极远距离
1.07543E-6 低风险 0.36